User: anonymous
Location: Drayton Valley
(53.2170°N, 114.9830°W)
Time: 22:14:52
(UTC-06:00)
Language:

MOZ.5/SAFIR/RUBIN 5/SL-8 - Orbit

View from above orbital plane
View from above orbital plane
View from above satellite
View from above satellite

Ground track
Ground track

The orbit data is extracted from the following two-line orbital elements,

1 28898U 05043G   14242.47881189  .00000242  00000-0  60028-4 0  9039
2 28898 097.8374 067.9490 0020871 159.0626 258.6534 14.59521726470766
Epoch (UTC): 30 August 2014 11:29:29
Eccentricity: 0.0020871
inclination: 97.8374°
perigee height: 680 km
apogee height: 709 km
right ascension of ascending node: 67.9490°
argument of perigee: 159.0626°
revolutions per day: 14.59521726
mean anomaly at epoch: 258.6534°
orbit number at epoch: 47076

The dashed part of the orbit path shows where the satellite is in the earth's shadow,  

DLR